Weather History for Hot Springs, AR

Change the Weather History Date:

Tuesday, July 17, 2012

  Actual Average Record
Temperature  
Mean Temperature 86 °F -  
Max Temperature 99 °F 94 °F 109 °F (1980)
Min Temperature 75 °F 70 °F 57 °F (1990)
Cooling Degree Days 21    
Growing Degree Days 36 (Base 50)    
Moisture  
Dew Point 67 °F    
Average Humidity 54    
Maximum Humidity 85    
Minimum Humidity 32    
Precipitation  
Precipitation 0.00 in - - ()
Sea Level Pressure  
Sea Level Pressure 29.95 in    
Wind  
Wind Speed 4 mph (SW)    
Max Wind Speed 9 mph    
Max Gust Speed -    
Visibility 10 miles    
Events      
Averages and records for this station are not official NWS values.
T = Trace of Precipitation, MM = Missing Value Source: NWS Daily Summary

Daily Weather History Graph

Daily Weather History Graph

Search for Another Location

Airport:

Trip Planner

Search our weather history database for the weather conditions in past years. The results will help you decide how hot, cold, wet, or windy it might be!

Date:

Astronomy

Jul. 17, 2012 Rise Set
Actual Time 6:12 AM CDT 8:24 PM CDT
Civil Twilight 5:44 AM CDT 8:52 PM CDT
Nautical Twilight 5:09 AM CDT 9:27 PM CDT
Astronomical Twilight 4:31 AM CDT 10:05 PM CDT
Moon 4:49 AM CDT (7/17) 7:15 PM CDT (7/17)
Length of Visible Light 15h 08m
Length of Day
14h 11m
Waning Crescent, 2% of the Moon is Illuminated
Jul 17
Waning Crescent
Jul 18
New
Jul 26
First Quarter
Aug 1
Full
Aug 9
Last Quarter

Hourly Weather History & Observations

Time (CDT) Temp. Heat Index Dew Point Humidity Pressure Visibility Wind Dir Wind Speed Gust Speed Precip Events Conditions
12:53 AM 82.9 °F 87.0 °F 70.0 °F 65% 29.96 in 10.0 mi SSW 4.6 mph - N/A   Clear
1:53 AM 81.0 °F 84.4 °F 70.0 °F 69% 29.96 in 10.0 mi Calm Calm - N/A   Clear
2:53 AM 79.0 °F - 70.0 °F 74% 29.96 in 10.0 mi Calm Calm - N/A   Clear
3:53 AM 78.1 °F - 70.0 °F 76% 29.95 in 10.0 mi Calm Calm - N/A   Clear
4:53 AM 77.0 °F - 70.0 °F 79% 29.96 in 10.0 mi Calm Calm - N/A   Clear
5:53 AM 75.9 °F - 70.0 °F 82% 29.97 in 10.0 mi Calm Calm - N/A   Clear
6:53 AM 75.9 °F - 71.1 °F 85% 29.98 in 10.0 mi Calm Calm - N/A   Clear
7:53 AM 80.1 °F 83.2 °F 70.0 °F 71% 29.99 in 10.0 mi SW 3.5 mph - N/A   Clear
8:53 AM 84.0 °F 87.8 °F 69.1 °F 61% 30.01 in 10.0 mi WSW 8.1 mph - N/A   Clear
9:53 AM 88.0 °F 90.7 °F 66.9 °F 49% 30.01 in 10.0 mi West 8.1 mph - N/A   Clear
10:53 AM 90.0 °F 92.8 °F 66.9 °F 46% 30.00 in 10.0 mi Variable 6.9 mph - N/A   Clear
11:53 AM 93.0 °F 95.9 °F 66.0 °F 41% 29.99 in 10.0 mi Variable 5.8 mph - N/A   Partly Cloudy
12:53 PM 93.9 °F 96.1 °F 64.9 °F 38% 29.98 in 10.0 mi SSW 6.9 mph - N/A   Partly Cloudy
1:53 PM 93.9 °F 96.1 °F 64.9 °F 38% 29.96 in 10.0 mi Variable 4.6 mph - N/A   Mostly Cloudy
2:53 PM 96.1 °F 98.8 °F 64.9 °F 36% 29.94 in 10.0 mi Variable 5.8 mph - N/A   Partly Cloudy
3:53 PM 97.0 °F 98.3 °F 63.0 °F 32% 29.91 in 10.0 mi SSW 5.8 mph - N/A   Partly Cloudy
4:53 PM 97.0 °F 99.3 °F 64.0 °F 34% 29.90 in 10.0 mi SSW 8.1 mph - N/A   Clear
5:53 PM 95.0 °F 97.0 °F 64.0 °F 36% 29.88 in 10.0 mi SW 6.9 mph - N/A   Clear
6:53 PM 96.1 °F 98.3 °F 64.0 °F 35% 29.88 in 10.0 mi South 8.1 mph - N/A   Clear
7:53 PM 93.0 °F 95.0 °F 64.9 °F 39% 29.88 in 10.0 mi SW 9.2 mph - N/A   Clear
8:53 PM 89.1 °F 92.1 °F 66.9 °F 48% 29.91 in 10.0 mi WSW 4.6 mph - N/A   Clear
9:53 PM 88.0 °F 91.4 °F 68.0 °F 51% 29.92 in 10.0 mi SSW 3.5 mph - N/A   Clear
10:53 PM 86.0 °F 89.4 °F 68.0 °F 55% 29.94 in 10.0 mi South 3.5 mph - N/A   Clear
11:53 PM 84.0 °F 87.8 °F 69.1 °F 61% 29.94 in 10.0 mi Calm Calm - N/A   Clear